K5RNB Weather Reports


Display with metric or nautical units.
time (UTC)temp
F
wind
direction
speed
MPH
gust
MPH
rain 1hr
in
rain 24hr
in
rain mn
in
humidity
%
barometer
mb
20260507192926 70 89 3.0 12.0 0.00 0.00 0.00 52 1016.4
20260507192427 69 15 3.0 9.0 0.00 0.00 0.00 55 1016.4
20260507191425 69 4 6.0 12.0 0.00 0.00 0.00 53 1016.6
20260507190926 68 12 3.0 12.0 0.00 0.00 0.00 56 1016.6
20260507185925 69 349 2.0 13.0 0.00 0.00 0.00 53 1016.6
20260507185425 69 20 3.0 8.0 0.00 0.00 0.00 58 1016.7
20260507184925 68 331 3.0 10.0 0.00 0.00 0.00 57 1016.7
20260507184425 68 36 6.0 12.0 0.00 0.00 0.00 56 1016.7
20260507183425 68 8 4.0 10.0 0.00 0.00 0.00 55 1016.9
20260507182928 68 36 6.0 10.0 0.00 0.00 0.00 56 1016.9
20260507182425 68 53 3.0 10.0 0.00 0.00 0.00 57 1017.0
20260507181926 68 4 5.0 10.0 0.00 0.00 0.00 56 1017.1
20260507180926 67 51 5.0 12.0 0.00 0.00 0.00 57 1017.4
20260507180426 67 1 9.0 12.0 0.00 0.00 0.00 55 1017.5
20260507175425 67 7 5.0 12.0 0.00 0.00 0.00 54 1017.7
20260507174928 67 48 6.0 12.0 0.00 0.00 0.00 53 1017.8
20260507174426 68 27 7.0 12.0 0.00 0.00 0.00 54 1018.1
20260507173426 66 8 7.0 12.0 0.00 0.00 0.00 54 1018.2
20260507172927 66 5 6.0 12.0 0.00 0.00 0.00 56 1018.4
20260507172428 66 48 8.0 12.0 0.00 0.00 0.00 55 1018.5
20260507171926 65 23 5.0 12.0 0.00 0.00 0.00 58 1018.5
20260507171426 65 0 9.0 12.0 0.00 0.00 0.00 55 1018.6
20260507170926 65 11 8.0 12.0 0.00 0.00 0.00 56 1018.7
20260507170426 65 8 6.0 12.0 0.00 0.00 0.00 56 1018.7
20260507165927 65 39 7.0 12.0 0.00 0.00 0.00 58 1018.8
20260507165426 64 25 6.0 12.0 0.00 0.00 0.00 58 1018.8
20260507164926 64 50 4.0 12.0 0.00 0.00 0.00 57 1018.9
20260507164426 64 14 6.0 12.0 0.00 0.00 0.00 58 1018.9
20260507163926 64 6 6.0 12.0 0.00 0.00 0.00 62 1018.9
20260507163426 64 29 7.0 13.0 0.00 0.00 0.00 61 1019.1
20260507162926 64 11 8.0 13.0 0.00 0.00 0.00 61 1019.0
20260507161927 63 32 9.0 12.0 0.00 0.00 0.00 64 1019.2
20260507161426 63 25 6.0 12.0 0.00 0.00 0.00 64 1019.1
20260507160927 63 16 9.0 13.0 0.00 0.00 0.00 64 1019.2
20260507160426 63 9 6.0 13.0 0.00 0.00 0.00 65 1019.2
20260507155927 63 42 5.0 12.0 0.00 0.00 0.00 65 1019.2
20260507155426 62 42 8.0 10.0 0.00 0.00 0.00 67 1019.2
20260507154928 62 41 6.0 10.0 0.00 0.00 0.00 68 1019.3
20260507154428 62 37 7.0 12.0 0.00 0.00 0.00 69 1019.4
20260507153926 62 32 5.0 12.0 0.00 0.00 0.00 70 1019.4
20260507152927 62 30 5.0 9.0 0.00 0.00 0.00 72 1019.5
20260507152426 61 50 5.0 9.0 0.00 0.01 0.00 73 1019.5
20260507151927 61 17 5.0 9.0 0.00 0.01 0.00 75 1019.5
20260507151427 61 51 6.0 9.0 0.00 0.01 0.00 74 1019.6
20260507150927 60 33 5.0 9.0 0.00 0.01 0.00 75 1019.6
20260507150426 60 8 4.0 9.0 0.00 0.01 0.00 77 1019.6
20260507145927 59 34 6.0 9.0 0.00 0.01 0.00 77 1019.6
20260507144927 59 17 5.0 10.0 0.00 0.01 0.00 77 1019.8
20260507143928 60 10 4.0 9.0 0.00 0.01 0.00 77 1019.8
20260507142928 60 10 3.0 7.0 0.00 0.01 0.00 77 1019.9
20260507142427 59 34 2.0 7.0 0.00 0.01 0.00 79 1020.0
20260507141927 58 18 2.0 6.0 0.00 0.01 0.00 79 1020.0
20260507141427 58 10 3.0 5.0 0.00 0.01 0.00 80 1020.1
20260507140927 58 353 2.0 8.0 0.00 0.01 0.00 80 1020.2
20260507140427 58 38 2.0 8.0 0.00 0.01 0.00 81 1020.1
20260507135928 57 10 3.0 8.0 0.00 0.01 0.00 82 1020.1
20260507135427 56 35 3.0 6.0 0.00 0.01 0.00 84 1020.1
20260507134427 55 13 3.0 8.0 0.00 0.01 0.00 85 1020.2
20260507133927 55 355 3.0 5.0 0.00 0.01 0.00 87 1020.2
20260507133427 54 4 3.0 7.0 0.00 0.01 0.00 88 1020.3
20260507132928 54 1 5.0 7.0 0.00 0.01 0.00 89 1020.1
20260507132427 53 26 2.0 3.0 0.00 0.01 0.00 89 1020.1
20260507131927 52 286 0.0 0.0 0.00 0.01 0.00 89 1020.1
20260507131428 51 286 0.0 1.0 0.00 0.01 0.00 89 1020.2
20260507130927 51 286 0.0 1.0 0.00 0.01 0.00 89 1020.1
20260507130428 51 315 0.0 0.0 0.00 0.01 0.00 89 1020.1
20260507125928 50 315 0.0 0.0 0.00 0.01 0.00 89 1020.0
20260507125428 50 315 0.0 0.0 0.00 0.01 0.00 89 1019.9
20260507124927 49 315 0.0 0.0 0.00 0.01 0.00 89 1019.8
20260507124428 49 315 0.0 1.0 0.00 0.01 0.00 89 1019.8
20260507123927 49 315 0.0 2.0 0.00 0.01 0.00 89 1019.7
20260507123428 49 315 1.0 3.0 0.00 0.01 0.00 89 1019.7
20260507122927 49 315 1.0 3.0 0.00 0.01 0.00 89 1019.6
20260507122428 49 315 1.0 3.0 0.00 0.01 0.00 88 1019.5
20260507121927 49 315 1.0 3.0 0.00 0.01 0.00 88 1019.5
20260507121429 49 313 2.0 3.0 0.00 0.01 0.00 88 1019.3
20260507120928 49 313 2.0 5.0 0.00 0.01 0.00 88 1019.4
20260507115928 49 309 3.0 3.0 0.00 0.01 0.00 88 1019.3
20260507115428 49 309 1.0 3.0 0.00 0.01 0.00 88 1019.3
20260507114428 49 309 1.0 3.0 0.00 0.01 0.00 88 1019.3
20260507113928 49 289 1.0 3.0 0.00 0.01 0.00 88 1019.4
20260507113428 49 295 1.0 5.0 0.00 0.01 0.00 88 1019.3
20260507112429 49 308 3.0 5.0 0.00 0.01 0.00 88 1019.1
20260507111928 49 307 2.0 3.0 0.00 0.01 0.00 88 1019.1
20260507111428 50 301 1.0 3.0 0.00 0.01 0.00 88 1019.0
20260507110929 50 301 2.0 3.0 0.00 0.01 0.00 87 1018.8
20260507105928 51 301 1.0 3.0 0.00 0.01 0.00 87 1018.7
20260507105429 51 301 2.0 5.0 0.00 0.01 0.00 87 1018.6
20260507104429 52 278 3.0 3.0 0.00 0.01 0.00 87 1018.2
20260507103929 52 317 2.0 3.0 0.00 0.01 0.00 87 1018.5
20260507102929 52 323 3.0 3.0 0.00 0.01 0.00 86 1018.5
20260507102428 53 324 3.0 5.0 0.00 0.01 0.00 86 1018.5
20260507101929 53 314 3.0 5.0 0.00 0.01 0.00 86 1018.4
20260507101428 53 332 3.0 5.0 0.00 0.01 0.00 86 1018.1
20260507100929 53 330 3.0 5.0 0.00 0.01 0.00 86 1017.9
20260507100428 54 345 3.0 6.0 0.00 0.01 0.00 86 1017.7
20260507095928 54 8 4.0 6.0 0.00 0.01 0.00 86 1017.6
20260507095429 54 358 3.0 6.0 0.00 0.01 0.00 85 1017.5
20260507094929 54 354 3.0 5.0 0.00 0.01 0.00 85 1017.6
20260507093929 55 13 2.0 3.0 0.00 0.01 0.00 85 1017.5
20260507093429 55 27 2.0 3.0 0.00 0.01 0.00 85 1017.5
20260507092929 55 16 2.0 3.0 0.00 0.01 0.00 84 1017.6
20260507092429 55 17 2.0 3.0 0.00 0.01 0.00 84 1017.7
20260507091929 56 8 3.0 3.0 0.00 0.01 0.00 84 1017.6
20260507091428 56 18 3.0 5.0 0.00 0.01 0.00 84 1017.4
20260507090429 56 16 3.0 5.0 0.00 0.01 0.00 82 1017.4
20260507085929 56 35 3.0 3.0 0.00 0.01 0.00 83 1017.7
20260507085429 56 39 2.0 3.0 0.00 0.01 0.00 82 1017.5
20260507084930 57 51 1.0 2.0 0.00 0.01 0.00 80 1017.6
20260507084429 57 51 0.0 2.0 0.00 0.01 0.00 79 1017.8
20260507083930 58 51 1.0 2.0 0.00 0.01 0.00 79 1017.7
20260507083431 58 43 1.0 5.0 0.00 0.01 0.00 80 1017.7
20260507082929 58 43 1.0 6.0 0.00 0.01 0.00 81 1017.6
20260507082429 58 55 2.0 6.0 0.00 0.01 0.00 82 1017.4
20260507081929 57 55 2.0 8.0 0.00 0.01 0.00 83 1017.3
20260507080429 57 42 2.0 6.0 0.00 0.01 0.00 83 1017.2
20260507075930 57 60 1.0 10.0 0.00 0.01 0.00 83 1017.6
20260507075429 57 31 3.0 10.0 0.00 0.01 0.00 84 1017.2
20260507074930 57 30 4.0 10.0 0.00 0.01 0.00 84 1017.1
20260507074431 56 43 3.0 8.0 0.00 0.01 0.00 84 1017.1
20260507073930 56 29 4.0 8.0 0.00 0.01 0.00 84 1017.1
20260507073430 56 25 3.0 7.0 0.00 0.01 0.00 84 1017.4
20260507072929 56 29 5.0 7.0 0.00 0.01 0.00 83 1017.2
20260507072430 56 26 3.0 8.0 0.00 0.01 0.00 84 1017.3
20260507071930 56 18 5.0 10.0 0.00 0.01 0.00 83 1017.3
20260507071429 56 11 6.0 10.0 0.00 0.01 0.00 82 1017.3
20260507070930 57 5 5.0 7.0 0.00 0.01 0.00 81 1017.3
20260507070432 57 41 3.0 7.0 0.00 0.01 0.00 80 1017.8
20260507065929 57 39 3.0 6.0 0.00 0.01 0.00 80 1017.5
20260507064931 57 41 3.0 7.0 0.00 0.01 0.00 79 1017.3
20260507064430 57 34 3.0 7.0 0.00 0.01 0.00 79 1017.3
20260507063930 57 33 4.0 7.0 0.00 0.01 0.00 79 1017.3
20260507063430 57 39 2.0 3.0 0.00 0.01 0.00 80 1017.4
20260507062930 56 38 2.0 3.0 0.00 0.01 0.00 80 1017.4
20260507062430 56 55 2.0 3.0 0.00 0.01 0.00 80 1017.4
20260507061430 57 42 2.0 3.0 0.00 0.01 0.00 79 1017.0
20260507060930 57 70 1.0 3.0 0.00 0.01 0.00 79 1017.1
20260507060430 57 70 1.0 3.0 0.00 0.01 0.00 79 1016.9
20260507055930 57 70 1.0 3.0 0.00 0.01 0.00 79 1017.0
20260507055432 57 70 2.0 3.0 0.00 0.01 0.00 78 1016.7
20260507054931 58 70 0.0 3.0 0.00 0.01 0.00 77 1016.8
20260507053930 58 70 1.0 3.0 0.00 0.01 0.00 77 1016.6
20260507053430 58 70 2.0 3.0 0.00 0.01 0.00 77 1016.6
20260507052432 58 70 1.0 5.0 0.00 0.01 0.00 78 1016.6
20260507051430 58 53 3.0 5.0 0.00 0.01 0.00 76 1016.9
20260507050930 58 60 2.0 3.0 0.00 0.01 0.00 77 1016.7
20260507050430 58 58 2.0 5.0 0.00 0.01 0.00 77 1016.8
20260507045930 58 39 2.0 5.0 0.00 0.01 0.00 76 1016.7
20260507045431 59 57 2.0 5.0 0.00 0.01 0.01 76 1017.0
20260507044430 59 67 2.0 5.0 0.00 0.01 0.01 76 1016.8
20260507043931 59 57 2.0 5.0 0.00 0.01 0.01 75 1017.0
20260507043431 60 52 2.0 5.0 0.00 0.01 0.01 74 1017.0
20260507042932 60 61 2.0 3.0 0.00 0.01 0.01 74 1017.1
20260507042430 60 62 0.0 3.0 0.00 0.01 0.01 75 1017.0
20260507041932 60 65 1.0 3.0 0.00 0.01 0.01 75 1017.0
20260507041430 60 69 2.0 3.0 0.00 0.01 0.01 75 1017.0
20260507040931 59 71 1.0 7.0 0.00 0.01 0.01 76 1017.0
20260507040431 59 76 2.0 8.0 0.00 0.01 0.01 76 1017.1
20260507035931 59 79 4.0 8.0 0.00 0.01 0.01 75 1016.9
20260507035430 59 76 3.0 8.0 0.00 0.01 0.01 75 1016.9
20260507034932 60 70 3.0 8.0 0.00 0.01 0.01 75 1017.0
20260507034431 60 72 3.0 9.0 0.00 0.01 0.01 75 1017.0
20260507033931 60 70 3.0 12.0 0.00 0.01 0.01 75 1017.0
20260507032931 60 56 5.0 12.0 0.00 0.01 0.01 74 1016.8
20260507032431 60 63 5.0 8.0 0.00 0.01 0.01 75 1017.0
20260507031932 60 74 4.0 7.0 0.00 0.01 0.01 75 1016.9
20260507031431 60 58 4.0 12.0 0.00 0.01 0.01 75 1016.9
20260507030931 60 52 5.0 12.0 0.00 0.01 0.01 75 1016.8
20260507030431 60 42 7.0 14.0 0.00 0.01 0.01 75 1016.7
20260507025931 60 58 7.0 14.0 0.00 0.01 0.01 75 1016.7
20260507025432 60 56 9.0 15.0 0.00 0.01 0.01 75 1016.7
20260507024931 60 43 8.0 15.0 0.00 0.01 0.01 75 1016.6
20260507024432 60 54 6.0 15.0 0.00 0.01 0.01 76 1016.5
20260507023431 60 32 9.0 14.0 0.00 0.01 0.01 76 1016.5
20260507022931 60 38 7.0 14.0 0.00 0.01 0.01 76 1016.4
20260507021931 60 17 9.0 15.0 0.00 0.01 0.01 75 1016.3
20260507021431 60 25 10.0 15.0 0.00 0.01 0.01 75 1016.3
20260507020432 60 30 11.0 20.0 0.00 0.01 0.01 75 1015.9
20260507015931 60 29 14.0 20.0 0.00 0.01 0.01 74 1015.8
20260507014931 60 28 13.0 20.0 0.00 0.01 0.01 74 1015.6
20260507014432 60 33 13.0 20.0 0.00 0.01 0.01 75 1015.5
20260507013931 60 26 12.0 18.0 0.00 0.01 0.01 74 1015.3
20260507013431 60 36 10.0 18.0 0.00 0.01 0.01 75 1015.2
20260507012932 60 28 11.0 18.0 0.00 0.01 0.01 75 1015.0
20260507012431 61 28 11.0 18.0 0.00 0.01 0.01 74 1014.8
20260507011932 61 33 11.0 20.0 0.00 0.01 0.01 74 1014.7
20260507011431 61 28 14.0 20.0 0.00 0.01 0.01 74 1014.7
20260507010931 62 31 9.0 15.0 0.00 0.01 0.01 73 1014.6
20260507010432 62 40 9.0 15.0 0.00 0.01 0.01 73 1014.5
20260507005932 62 43 9.0 15.0 0.00 0.01 0.01 74 1014.4
20260507005432 62 28 9.0 14.0 0.00 0.01 0.01 74 1014.4
20260507004932 62 33 9.0 14.0 0.00 0.01 0.01 74 1014.3
20260507004431 62 43 6.0 14.0 0.00 0.01 0.01 74 1014.3
20260507003432 62 29 7.0 15.0 0.00 0.01 0.01 75 1014.2
20260507002932 62 33 10.0 15.0 0.00 0.01 0.01 74 1014.1
20260507002432 62 26 11.0 15.0 0.00 0.01 0.01 74 1014.0
20260507000932 63 55 7.0 13.0 0.00 0.01 0.01 73 1013.8
20260507000432 63 38 6.0 13.0 0.00 0.01 0.01 73 1013.8
20260506235932 63 47 8.0 13.0 0.00 0.01 0.01 73 1013.7
20260506234933 63 41 7.0 13.0 0.00 0.01 0.01 72 1013.6
20260506234432 64 52 6.0 14.0 0.00 0.01 0.01 73 1013.6
20260506233933 63 60 5.0 14.0 0.00 0.01 0.01 73 1013.5
20260506233432 64 45 7.0 14.0 0.00 0.01 0.01 73 1013.5
20260506232933 63 48 6.0 14.0 0.00 0.01 0.01 73 1013.5
20260506232432 63 65 6.0 12.0 0.00 0.01 0.01 73 1013.5
20260506231932 63 34 9.0 13.0 0.00 0.01 0.01 72 1013.5
20260506231433 63 55 7.0 14.0 0.00 0.01 0.01 73 1013.5
20260506230932 63 52 7.0 14.0 0.00 0.01 0.01 73 1013.4
20260506230433 64 36 9.0 13.0 0.00 0.01 0.01 72 1013.3
20260506225932 64 49 6.0 13.0 0.00 0.01 0.01 73 1013.3
20260506225433 64 27 8.0 13.0 0.00 0.01 0.01 73 1013.3
20260506224933 64 44 6.0 15.0 0.00 0.01 0.01 73 1013.2
20260506224432 64 25 10.0 15.0 0.00 0.01 0.01 72 1013.2
20260506223932 64 38 8.0 14.0 0.00 0.01 0.01 72 1013.1
20260506223433 64 51 6.0 13.0 0.00 0.01 0.01 73 1013.1
20260506222932 64 56 9.0 17.0 0.00 0.01 0.01 72 1013.1
20260506222433 64 40 7.0 17.0 0.00 0.01 0.01 72 1013.1
20260506221932 64 61 9.0 15.0 0.00 0.01 0.01 71 1013.1
20260506221433 64 50 5.0 15.0 0.00 0.01 0.01 72 1013.0
20260506220933 65 47 7.0 15.0 0.00 0.01 0.01 72 1012.8
20260506220433 65 61 9.0 15.0 0.00 0.01 0.01 71 1012.9
20260506215433 64 40 9.0 15.0 0.00 0.01 0.01 72 1012.8
20260506214933 65 30 10.0 14.0 0.00 0.01 0.01 70 1012.9
20260506214433 65 65 7.0 16.0 0.00 0.01 0.01 72 1012.8
20260506213933 65 46 10.0 16.0 0.00 0.01 0.01 70 1012.9
20260506211934 64 78 6.0 12.0 0.00 0.01 0.01 73 1013.2
20260506211433 64 36 7.0 13.0 0.00 0.01 0.01 71 1012.9
20260506210933 64 54 5.0 14.0 0.00 0.01 0.01 72 1012.9
20260506210434 64 64 7.0 14.0 0.00 0.01 0.01 72 1013.0
20260506205933 64 15 8.0 13.0 0.00 0.01 0.01 72 1013.0
20260506205433 64 48 5.0 12.0 0.00 0.01 0.01 72 1013.2
20260506204933 63 43 6.0 12.0 0.00 0.01 0.01 72 1013.2
20260506204433 64 8 5.0 10.0 0.00 0.01 0.01 71 1013.2
20260506203433 64 37 5.0 10.0 0.00 0.01 0.01 71 1013.4
20260506202934 64 56 5.0 10.0 0.00 0.01 0.01 71 1013.5
20260506202433 64 27 3.0 10.0 0.00 0.01 0.01 72 1013.6
20260506201934 63 24 5.0 12.0 0.00 0.01 0.01 72 1013.6
20260506201433 63 57 5.0 12.0 0.00 0.01 0.01 72 1013.6
20260506200434 63 12 6.0 10.0 0.00 0.01 0.01 69 1013.8
20260506195935 64 79 4.0 12.0 0.00 0.01 0.01 71 1013.9
20260506195433 64 61 6.0 12.0 0.00 0.01 0.01 70 1013.9
20260506194934 64 58 3.0 9.0 0.00 0.01 0.01 70 1014.0
20260506194433 64 83 4.0 9.0 0.00 0.01 0.01 69 1014.1
20260506193933 64 68 5.0 8.0 0.00 0.01 0.01 70 1014.1
20260506193434 64 39 3.0 12.0 0.00 0.01 0.01 72 1014.1